Location: Lango�lan
(48.1202°N, 3.2340°W)
Time: 04:55:32
(UTC+00:00)

Cosmos 1570 Rocket - Pass Details

Date: 23 October 2019
Orbit: 763 x 788 km, 74.1° (Epoch: 18 November)

Event Time Altitude Azimuth Distance (km) Brightness Sun altitude
Rises 05:25:21 0° 336° (NNW) 3,292 7.0 -13.7°
Reaches altitude 10° 05:27:46 10° 335° (NNW) 2,357 6.3 -13.3°
Maximum altitude 05:33:07 77° 250° (WSW) 809 4.0 -12.4°
Drops below altitude 10° 05:38:24 10° 165° (SSE) 2,327 6.7 -11.5°
Sets 05:40:46 0° 164° (SSE) 3,246 7.5 -11.1°
